{"data":{"norad_id":69755,"epoch":"2026-09-20T00:02:09.141216Z","epoch_age_seconds":60859,"freshness":"FRESH","line1":"1 69755U 26150S   26263.00149469  .00006580  00000+0  20600-3 0  9997","line2":"2 69755  97.2847 102.0014 0001688  88.1295 272.0141 15.33439829 13665","mean_motion":15.33439829,"eccentricity":0.0001688,"inclination_deg":97.2847,"raan_deg":102.0014,"arg_perigee_deg":88.1295,"mean_anomaly_deg":272.0141,"bstar":0.000206,"rev_number":1366,"period_min":93.906521323309,"perigee_km":464.40334396877,"apogee_km":466.71377558975,"semimajor_km":6843.6955597793,"source":"CELESTRAK","updated_at":"2026-09-20T09:00:44.289404Z"}}